| time (UTC) | temp F | wind direction | speed knots | gust knots | rain 1hr in | rain 24hr in | rain mn in | humidity % | barometer mb |
| 20260901220016 | 80 | 135 | 3.5 | 7.8 | 0.00 | 0.05 | 0.05 | 83 | 1013.7 |
| 20260901215516 | 80 | 135 | 4.3 | 8.7 | 0.00 | 0.05 | 0.05 | 82 | 1013.9 |
| 20260901215016 | 80 | 113 | 3.5 | 7.8 | 0.00 | 0.05 | 0.05 | 82 | 1013.9 |
| 20260901214516 | 81 | 113 | 4.3 | 8.7 | 0.00 | 0.05 | 0.05 | 81 | 1013.9 |
| 20260901214036 | 81 | 135 | 4.3 | 8.7 | 0.00 | 0.05 | 0.05 | 80 | 1013.9 |
| 20260901213517 | 82 | 135 | 3.5 | 7.8 | 0.00 | 0.05 | 0.05 | 79 | 1013.9 |
| 20260901213016 | 82 | 135 | 3.5 | 7.8 | 0.00 | 0.05 | 0.05 | 78 | 1013.8 |
| 20260901212516 | 83 | 113 | 3.5 | 7.8 | 0.00 | 0.05 | 0.05 | 78 | 1013.8 |
| 20260901212037 | 83 | 113 | 3.5 | 7.0 | 0.00 | 0.05 | 0.05 | 78 | 1013.9 |
| 20260901211516 | 83 | 113 | 3.5 | 7.0 | 0.00 | 0.05 | 0.05 | 78 | 1014.0 |
| 20260901211016 | 83 | 113 | 2.6 | 6.1 | 0.00 | 0.05 | 0.05 | 78 | 1013.9 |
| 20260901210517 | 83 | 135 | 3.5 | 7.0 | 0.00 | 0.05 | 0.05 | 77 | 1013.8 |
| 20260901210016 | 84 | 158 | 1.7 | 4.3 | 0.00 | 0.05 | 0.05 | 78 | 1013.8 |
| 20260901205516 | 84 | 135 | 1.7 | 5.2 | 0.00 | 0.05 | 0.05 | 78 | 1013.8 |
| 20260901205016 | 84 | 135 | 3.5 | 6.1 | 0.00 | 0.05 | 0.05 | 77 | 1013.8 |
| 20260901204516 | 84 | 135 | 2.6 | 6.1 | 0.00 | 0.05 | 0.05 | 77 | 1013.8 |
| 20260901204036 | 84 | 135 | 2.6 | 5.2 | 0.00 | 0.05 | 0.05 | 76 | 1013.8 |
| 20260901203537 | 85 | 135 | 1.7 | 6.1 | 0.00 | 0.05 | 0.05 | 76 | 1013.9 |
| 20260901203017 | 85 | 113 | 1.7 | 7.0 | 0.00 | 0.05 | 0.05 | 75 | 1014.0 |
| 20260901202516 | 85 | 135 | 1.7 | 5.2 | 0.00 | 0.05 | 0.05 | 75 | 1013.9 |
| 20260901202017 | 86 | 135 | 0.9 | 5.2 | 0.00 | 0.05 | 0.05 | 75 | 1013.9 |
| 20260901201516 | 86 | 0.0 | 2.6 | 0.00 | 0.05 | 0.05 | 75 | 1013.8 | |
| 20260901201016 | 85 | 0.0 | 1.7 | 0.00 | 0.05 | 0.05 | 75 | 1013.9 | |
| 20260901200536 | 85 | 0.0 | 1.7 | 0.00 | 0.05 | 0.05 | 75 | 1013.9 | |
| 20260901200016 | 86 | 158 | 0.9 | 4.3 | 0.00 | 0.05 | 0.05 | 75 | 1013.8 |
| 20260901195516 | 86 | 158 | 0.9 | 3.5 | 0.00 | 0.05 | 0.05 | 75 | 1013.8 |
| 20260901195016 | 86 | 158 | 0.9 | 4.3 | 0.00 | 0.05 | 0.05 | 75 | 1013.7 |
| 20260901194516 | 86 | 135 | 0.9 | 2.6 | 0.00 | 0.05 | 0.05 | 75 | 1013.8 |
| 20260901194016 | 86 | 0.0 | 2.6 | 0.00 | 0.05 | 0.05 | 76 | 1013.9 | |
| 20260901193516 | 85 | 135 | 0.9 | 3.5 | 0.00 | 0.05 | 0.05 | 76 | 1014.0 |
| 20260901193016 | 85 | 113 | 0.9 | 3.5 | 0.00 | 0.05 | 0.05 | 77 | 1014.0 |
| 20260901192516 | 85 | 135 | 1.7 | 4.3 | 0.00 | 0.05 | 0.05 | 78 | 1014.0 |
| 20260901192016 | 85 | 135 | 1.7 | 5.2 | 0.00 | 0.05 | 0.05 | 79 | 1014.0 |
| 20260901191516 | 84 | 293 | 0.9 | 5.2 | 0.00 | 0.05 | 0.05 | 80 | 1014.0 |
| 20260901191036 | 84 | 0.0 | 1.7 | 0.00 | 0.05 | 0.05 | 81 | 1014.1 | |
| 20260901190516 | 83 | 225 | 0.9 | 2.6 | 0.00 | 0.05 | 0.05 | 81 | 1014.1 |
| 20260901190016 | 83 | 0.0 | 0.9 | 0.00 | 0.05 | 0.05 | 82 | 1014.1 | |
| 20260901185516 | 82 | 248 | 1.7 | 4.3 | 0.00 | 0.05 | 0.05 | 81 | 1014.2 |
| 20260901185017 | 82 | 225 | 0.9 | 3.5 | 0.00 | 0.05 | 0.05 | 82 | 1014.2 |
| 20260901184516 | 82 | 225 | 0.9 | 3.5 | 0.00 | 0.05 | 0.05 | 82 | 1014.2 |
| 20260901184036 | 82 | 0.0 | 1.7 | 0.00 | 0.05 | 0.05 | 82 | 1014.3 | |
| 20260901183517 | 82 | 0.0 | 1.7 | 0.00 | 0.05 | 0.05 | 82 | 1014.3 | |
| 20260901183016 | 82 | 248 | 0.9 | 3.5 | 0.00 | 0.05 | 0.05 | 82 | 1014.3 |
| 20260901182516 | 82 | 135 | 0.9 | 4.3 | 0.00 | 0.05 | 0.05 | 83 | 1014.2 |
| 20260901182017 | 82 | 225 | 0.9 | 6.1 | 0.00 | 0.05 | 0.05 | 84 | 1014.2 |
| 20260901181536 | 81 | 248 | 1.7 | 6.1 | 0.00 | 0.05 | 0.05 | 85 | 1014.2 |
| 20260901181016 | 81 | 225 | 3.5 | 8.7 | 0.00 | 0.05 | 0.05 | 86 | 1014.1 |
| 20260901180516 | 81 | 225 | 4.3 | 9.6 | 0.00 | 0.05 | 0.05 | 86 | 1014.1 |
| 20260901180016 | 81 | 203 | 1.7 | 6.1 | 0.00 | 0.05 | 0.05 | 87 | 1014.1 |
| 20260901175537 | 80 | 225 | 0.9 | 4.3 | 0.00 | 0.05 | 0.05 | 88 | 1014.1 |
| 20260901175017 | 80 | 248 | 1.7 | 7.8 | 0.00 | 0.05 | 0.05 | 90 | 1014.1 |
| 20260901174557 | 80 | 248 | 1.7 | 6.1 | 0.00 | 0.05 | 0.05 | 90 | 1013.9 |
| 20260901174017 | 79 | 225 | 2.6 | 7.8 | 0.00 | 0.05 | 0.05 | 91 | 1014.1 |
| 20260901173536 | 78 | 0.0 | 1.7 | 0.00 | 0.05 | 0.05 | 92 | 1014.5 | |
| 20260901173016 | 78 | 0.0 | 2.6 | 0.00 | 0.05 | 0.05 | 91 | 1014.7 | |
| 20260901172516 | 78 | 0.0 | 1.7 | 0.00 | 0.05 | 0.05 | 92 | 1014.9 | |
| 20260901172017 | 77 | 0.0 | 1.7 | 0.00 | 0.05 | 0.05 | 91 | 1015.0 | |
| 20260901171517 | 77 | 0.0 | 1.7 | 0.00 | 0.05 | 0.05 | 91 | 1014.9 | |
| 20260901171016 | 77 | 225 | 0.9 | 5.2 | 0.00 | 0.05 | 0.05 | 91 | 1015.0 |
| 20260901170537 | 77 | 0.0 | 2.6 | 0.01 | 0.05 | 0.05 | 91 | 1015.0 | |
| 20260901170036 | 77 | 0.0 | 4.3 | 0.01 | 0.05 | 0.05 | 91 | 1014.7 | |
| 20260901165536 | 77 | 0.0 | 0.0 | 0.02 | 0.05 | 0.05 | 91 | 1014.9 | |
| 20260901165016 | 77 | 0.0 | 1.7 | 0.02 | 0.05 | 0.05 | 91 | 1014.9 | |
| 20260901164516 | 77 | 225 | 0.9 | 2.6 | 0.02 | 0.05 | 0.05 | 91 | 1015.0 |
| 20260901164016 | 77 | 225 | 0.9 | 3.5 | 0.02 | 0.05 | 0.05 | 90 | 1015.2 |
| 20260901163516 | 77 | 225 | 2.6 | 4.3 | 0.02 | 0.05 | 0.05 | 90 | 1015.2 |
| 20260901163016 | 77 | 225 | 1.7 | 5.2 | 0.03 | 0.05 | 0.05 | 90 | 1015.4 |
| 20260901162516 | 78 | 0.0 | 1.7 | 0.03 | 0.05 | 0.05 | 90 | 1015.5 | |
| 20260901162016 | 78 | 0.0 | 0.9 | 0.03 | 0.05 | 0.05 | 90 | 1015.4 | |
| 20260901161536 | 77 | 0.0 | 0.9 | 0.03 | 0.05 | 0.05 | 90 | 1015.6 | |
| 20260901161016 | 78 | 0.0 | 0.0 | 0.03 | 0.05 | 0.05 | 90 | 1015.8 | |
| 20260901160535 | 77 | 0.0 | 0.9 | 0.02 | 0.04 | 0.04 | 90 | 1015.9 | |
| 20260901160055 | 77 | 0.0 | 0.9 | 0.02 | 0.04 | 0.04 | 90 | 1015.9 | |
| 20260901155517 | 77 | 0.0 | 0.9 | 0.01 | 0.03 | 0.03 | 90 | 1016.1 | |
| 20260901155016 | 78 | 0.0 | 1.7 | 0.01 | 0.03 | 0.03 | 90 | 1016.1 | |
| 20260901154517 | 78 | 0.0 | 1.7 | 0.01 | 0.03 | 0.03 | 90 | 1016.3 | |
| 20260901154016 | 78 | 293 | 0.9 | 2.6 | 0.01 | 0.03 | 0.03 | 90 | 1016.4 |
| 20260901153516 | 78 | 293 | 0.9 | 1.7 | 0.01 | 0.03 | 0.03 | 90 | 1016.3 |
| 20260901153016 | 78 | 293 | 0.9 | 1.7 | 0.00 | 0.02 | 0.02 | 90 | 1016.4 |
| 20260901152517 | 77 | 0.0 | 1.7 | 0.00 | 0.02 | 0.02 | 90 | 1016.1 | |
| 20260901152016 | 77 | 180 | 0.9 | 1.7 | 0.00 | 0.02 | 0.02 | 90 | 1016.2 |
| 20260901151535 | 77 | 0.0 | 1.7 | 0.00 | 0.02 | 0.02 | 90 | 1016.1 | |
| 20260901151159 | 77 | 0.0 | 1.7 | 0.00 | 0.02 | 0.02 | 90 | 1016.2 | |
| 20260901150517 | 77 | 0.0 | 1.7 | 0.00 | 0.02 | 0.02 | 90 | 1016.4 | |
| 20260901150036 | 77 | 0.0 | 0.9 | 0.00 | 0.02 | 0.02 | 91 | 1016.3 | |
| 20260901145517 | 77 | 0.0 | 1.7 | 0.00 | 0.02 | 0.02 | 91 | 1016.2 | |
| 20260901145015 | 77 | 180 | 0.9 | 2.6 | 0.00 | 0.02 | 0.02 | 91 | 1016.1 |
| 20260901144515 | 77 | 0.0 | 1.7 | 0.00 | 0.02 | 0.02 | 91 | 1016.2 | |
| 20260901144016 | 77 | 0.0 | 1.7 | 0.00 | 0.02 | 0.02 | 91 | 1016.2 | |
| 20260901143515 | 77 | 0.0 | 2.6 | 0.00 | 0.02 | 0.02 | 91 | 1016.2 | |
| 20260901143015 | 77 | 0.0 | 0.9 | 0.00 | 0.02 | 0.02 | 92 | 1016.1 | |
| 20260901142516 | 77 | 270 | 0.9 | 1.7 | 0.00 | 0.02 | 0.02 | 92 | 1016.1 |
| 20260901142017 | 76 | 0.0 | 0.0 | 0.00 | 0.02 | 0.02 | 92 | 1015.9 | |
| 20260901141515 | 76 | 0.0 | 0.9 | 0.00 | 0.02 | 0.02 | 92 | 1015.9 | |
| 20260901141015 | 76 | 135 | 0.9 | 3.5 | 0.00 | 0.02 | 0.02 | 92 | 1015.7 |
| 20260901140536 | 76 | 135 | 0.9 | 2.6 | 0.00 | 0.02 | 0.02 | 92 | 1015.7 |
| 20260901140016 | 76 | 225 | 0.9 | 2.6 | 0.00 | 0.02 | 0.02 | 92 | 1015.7 |
| 20260901135535 | 76 | 0.0 | 1.7 | 0.01 | 0.02 | 0.02 | 92 | 1015.9 | |
| 20260901135015 | 76 | 248 | 0.9 | 2.6 | 0.01 | 0.02 | 0.02 | 92 | 1016.0 |
| 20260901134515 | 76 | 225 | 0.9 | 3.5 | 0.01 | 0.02 | 0.02 | 93 | 1015.9 |
| 20260901134015 | 76 | 203 | 0.9 | 3.5 | 0.01 | 0.02 | 0.02 | 93 | 1015.9 |
| 20260901133516 | 75 | 270 | 0.9 | 3.5 | 0.01 | 0.02 | 0.02 | 93 | 1015.8 |
| 20260901133015 | 76 | 225 | 0.9 | 3.5 | 0.01 | 0.02 | 0.02 | 93 | 1015.8 |
| 20260901132516 | 75 | 225 | 0.9 | 3.5 | 0.01 | 0.02 | 0.02 | 93 | 1015.9 |
| 20260901132017 | 75 | 225 | 2.6 | 5.2 | 0.01 | 0.02 | 0.02 | 93 | 1015.9 |
| 20260901131515 | 75 | 248 | 2.6 | 6.1 | 0.01 | 0.02 | 0.02 | 93 | 1016.0 |
| 20260901131037 | 75 | 203 | 0.9 | 3.5 | 0.01 | 0.02 | 0.02 | 93 | 1016.0 |
| 20260901130515 | 75 | 225 | 2.6 | 7.8 | 0.01 | 0.02 | 0.02 | 93 | 1015.9 |
| 20260901130035 | 75 | 203 | 2.6 | 4.3 | 0.01 | 0.02 | 0.02 | 93 | 1015.9 |
| 20260901125517 | 75 | 293 | 0.9 | 3.5 | 0.00 | 0.01 | 0.01 | 93 | 1016.0 |
| 20260901125015 | 75 | 0.0 | 1.7 | 0.00 | 0.01 | 0.01 | 93 | 1015.9 | |
| 20260901124537 | 75 | 248 | 0.9 | 3.5 | 0.00 | 0.01 | 0.01 | 93 | 1016.0 |
| 20260901124015 | 75 | 248 | 0.9 | 4.3 | 0.00 | 0.01 | 0.01 | 93 | 1016.0 |
| 20260901123517 | 75 | 0.0 | 1.7 | 0.00 | 0.01 | 0.01 | 93 | 1015.9 | |
| 20260901123017 | 75 | 0.0 | 0.9 | 0.00 | 0.01 | 0.01 | 93 | 1016.0 | |
| 20260901122517 | 75 | 0.0 | 2.6 | 0.00 | 0.01 | 0.01 | 93 | 1016.1 | |
| 20260901122017 | 74 | 293 | 0.9 | 2.6 | 0.00 | 0.01 | 0.01 | 93 | 1016.0 |
| 20260901121517 | 74 | 0.0 | 0.9 | 0.00 | 0.01 | 0.01 | 93 | 1016.0 | |
| 20260901121017 | 74 | 0.0 | 1.7 | 0.00 | 0.01 | 0.01 | 92 | 1016.2 | |
| 20260901120517 | 74 | 0.0 | 0.0 | 0.00 | 0.01 | 0.01 | 92 | 1016.3 | |
| 20260901120017 | 74 | 0.0 | 0.0 | 0.00 | 0.01 | 0.01 | 92 | 1016.3 | |
| 20260901115517 | 74 | 0.0 | 0.0 | 0.00 | 0.01 | 0.01 | 92 | 1016.1 | |
| 20260901115017 | 74 | 0.0 | 1.7 | 0.00 | 0.01 | 0.01 | 92 | 1016.0 | |
| 20260901114540 | 74 | 0.0 | 1.7 | 0.00 | 0.02 | 0.01 | 92 | 1016.1 | |
| 20260901114018 | 74 | 0.0 | 0.0 | 0.00 | 0.02 | 0.01 | 92 | 1016.1 | |
| 20260901113517 | 74 | 0.0 | 0.9 | 0.00 | 0.02 | 0.01 | 92 | 1016.2 | |
| 20260901113017 | 74 | 0.0 | 2.6 | 0.00 | 0.02 | 0.01 | 92 | 1016.3 | |
| 20260901112517 | 74 | 0.0 | 2.6 | 0.00 | 0.02 | 0.01 | 92 | 1016.3 | |
| 20260901112017 | 74 | 225 | 1.7 | 4.3 | 0.00 | 0.02 | 0.01 | 92 | 1016.4 |
| 20260901111517 | 74 | 248 | 1.7 | 3.5 | 0.00 | 0.02 | 0.01 | 92 | 1016.5 |
| 20260901111018 | 74 | 248 | 2.6 | 5.2 | 0.00 | 0.02 | 0.01 | 92 | 1016.4 |
| 20260901110517 | 74 | 248 | 1.7 | 3.5 | 0.00 | 0.02 | 0.01 | 92 | 1016.4 |
| 20260901110017 | 73 | 225 | 0.9 | 3.5 | 0.00 | 0.02 | 0.01 | 92 | 1016.4 |
| 20260901105517 | 73 | 225 | 0.9 | 3.5 | 0.00 | 0.02 | 0.01 | 92 | 1016.3 |
| 20260901105017 | 73 | 0.0 | 1.7 | 0.00 | 0.02 | 0.01 | 92 | 1016.3 | |
| 20260901104517 | 73 | 0.0 | 1.7 | 0.00 | 0.02 | 0.01 | 92 | 1016.2 | |
| 20260901104037 | 73 | 0.0 | 1.7 | 0.00 | 0.02 | 0.01 | 92 | 1016.1 | |
| 20260901103518 | 73 | 0.0 | 1.7 | 0.00 | 0.02 | 0.01 | 92 | 1016.2 | |
| 20260901103120 | 73 | 225 | 0.9 | 2.6 | 0.00 | 0.02 | 0.01 | 92 | 1016.1 |
| 20260901102536 | 73 | 225 | 0.9 | 2.6 | 0.00 | 0.02 | 0.01 | 92 | 1016.1 |
| 20260901102018 | 73 | 225 | 1.7 | 3.5 | 0.00 | 0.02 | 0.01 | 92 | 1016.1 |
| 20260901101517 | 73 | 225 | 0.9 | 2.6 | 0.00 | 0.02 | 0.01 | 92 | 1016.1 |
| 20260901101017 | 73 | 248 | 0.9 | 2.6 | 0.00 | 0.02 | 0.01 | 92 | 1016.1 |
| 20260901100518 | 73 | 248 | 1.7 | 3.5 | 0.00 | 0.02 | 0.01 | 92 | 1016.1 |
| 20260901100018 | 73 | 0.0 | 0.9 | 0.00 | 0.02 | 0.01 | 92 | 1016.1 | |
| 20260901095518 | 73 | 248 | 0.9 | 3.5 | 0.00 | 0.02 | 0.01 | 92 | 1015.9 |
| 20260901095018 | 73 | 270 | 1.7 | 6.1 | 0.00 | 0.02 | 0.01 | 92 | 1016.0 |
| 20260901094517 | 73 | 270 | 1.7 | 5.2 | 0.00 | 0.02 | 0.01 | 92 | 1016.0 |
| 20260901094018 | 73 | 225 | 1.7 | 4.3 | 0.00 | 0.02 | 0.01 | 92 | 1015.9 |
| 20260901093517 | 73 | 248 | 1.7 | 3.5 | 0.00 | 0.02 | 0.01 | 92 | 1015.9 |
| 20260901093037 | 73 | 225 | 1.7 | 3.5 | 0.00 | 0.02 | 0.01 | 92 | 1016.0 |
| 20260901092518 | 73 | 248 | 1.7 | 3.5 | 0.00 | 0.02 | 0.01 | 92 | 1016.1 |
| 20260901092017 | 73 | 203 | 0.9 | 3.5 | 0.00 | 0.02 | 0.01 | 92 | 1016.1 |
| 20260901091517 | 73 | 248 | 1.7 | 3.5 | 0.00 | 0.02 | 0.01 | 92 | 1016.2 |
| 20260901091018 | 73 | 225 | 1.7 | 5.2 | 0.00 | 0.02 | 0.01 | 92 | 1016.2 |
| 20260901090518 | 73 | 248 | 1.7 | 3.5 | 0.00 | 0.02 | 0.01 | 92 | 1016.3 |
| 20260901090017 | 73 | 225 | 1.7 | 3.5 | 0.00 | 0.02 | 0.01 | 92 | 1016.3 |
| 20260901085517 | 73 | 248 | 1.7 | 3.5 | 0.00 | 0.02 | 0.01 | 91 | 1016.4 |
| 20260901085037 | 73 | 225 | 1.7 | 3.5 | 0.00 | 0.02 | 0.01 | 91 | 1016.4 |
| 20260901084537 | 73 | 225 | 3.5 | 5.2 | 0.00 | 0.02 | 0.01 | 91 | 1016.4 |
| 20260901084018 | 73 | 225 | 1.7 | 4.3 | 0.00 | 0.02 | 0.01 | 91 | 1016.5 |
| 20260901083537 | 73 | 225 | 1.7 | 4.3 | 0.00 | 0.02 | 0.01 | 91 | 1016.5 |
| 20260901083017 | 73 | 248 | 1.7 | 3.5 | 0.00 | 0.02 | 0.01 | 91 | 1016.5 |
| 20260901082518 | 73 | 248 | 0.9 | 3.5 | 0.00 | 0.02 | 0.01 | 91 | 1016.5 |
| 20260901082017 | 73 | 270 | 0.9 | 2.6 | 0.00 | 0.02 | 0.01 | 91 | 1016.5 |
| 20260901081517 | 73 | 270 | 1.7 | 5.2 | 0.00 | 0.02 | 0.01 | 91 | 1016.6 |
| 20260901081038 | 73 | 270 | 1.7 | 6.1 | 0.00 | 0.02 | 0.01 | 91 | 1016.5 |
| 20260901080517 | 73 | 270 | 2.6 | 6.1 | 0.00 | 0.02 | 0.01 | 91 | 1016.6 |
| 20260901080017 | 73 | 270 | 0.9 | 3.5 | 0.00 | 0.02 | 0.01 | 91 | 1016.5 |
| 20260901075517 | 73 | 225 | 0.9 | 2.6 | 0.00 | 0.02 | 0.01 | 91 | 1016.4 |
| 20260901075017 | 73 | 225 | 1.7 | 4.3 | 0.00 | 0.02 | 0.01 | 91 | 1016.4 |
| 20260901074517 | 73 | 293 | 0.9 | 3.5 | 0.00 | 0.02 | 0.01 | 91 | 1016.4 |
| 20260901074018 | 73 | 248 | 2.6 | 4.3 | 0.00 | 0.02 | 0.01 | 91 | 1016.5 |
| 20260901073517 | 73 | 225 | 2.6 | 7.0 | 0.00 | 0.02 | 0.01 | 91 | 1016.5 |
| 20260901073018 | 73 | 225 | 1.7 | 5.2 | 0.00 | 0.02 | 0.01 | 91 | 1016.4 |
| 20260901072517 | 73 | 225 | 2.6 | 7.0 | 0.00 | 0.02 | 0.01 | 91 | 1016.5 |
| 20260901072018 | 73 | 225 | 1.7 | 4.3 | 0.00 | 0.02 | 0.01 | 91 | 1016.6 |
| 20260901071517 | 73 | 248 | 2.6 | 5.2 | 0.00 | 0.02 | 0.01 | 91 | 1016.7 |
| 20260901071017 | 73 | 225 | 2.6 | 7.8 | 0.00 | 0.02 | 0.01 | 90 | 1016.7 |
| 20260901070517 | 73 | 225 | 1.7 | 4.3 | 0.00 | 0.02 | 0.01 | 90 | 1016.8 |
| 20260901070017 | 73 | 225 | 0.9 | 3.5 | 0.00 | 0.02 | 0.01 | 90 | 1016.8 |
| 20260901065517 | 73 | 225 | 1.7 | 4.3 | 0.00 | 0.02 | 0.01 | 90 | 1016.7 |
| 20260901065017 | 73 | 225 | 0.9 | 4.3 | 0.00 | 0.02 | 0.01 | 90 | 1016.8 |
| 20260901064518 | 73 | 225 | 0.9 | 3.5 | 0.00 | 0.02 | 0.01 | 90 | 1016.9 |
| 20260901064017 | 73 | 225 | 2.6 | 5.2 | 0.00 | 0.02 | 0.01 | 90 | 1017.0 |
| 20260901063517 | 73 | 225 | 0.9 | 4.3 | 0.00 | 0.02 | 0.01 | 90 | 1017.0 |
| 20260901063018 | 73 | 225 | 0.9 | 4.3 | 0.00 | 0.02 | 0.01 | 90 | 1017.0 |
| 20260901062517 | 73 | 225 | 1.7 | 6.1 | 0.00 | 0.02 | 0.01 | 90 | 1017.0 |
| 20260901062017 | 73 | 225 | 0.9 | 4.3 | 0.00 | 0.02 | 0.01 | 90 | 1017.1 |
| 20260901061516 | 73 | 225 | 1.7 | 3.5 | 0.00 | 0.02 | 0.01 | 90 | 1017.2 |
| 20260901061018 | 73 | 225 | 1.7 | 5.2 | 0.00 | 0.02 | 0.01 | 90 | 1017.2 |
| 20260901060537 | 73 | 225 | 0.9 | 2.6 | 0.00 | 0.02 | 0.01 | 89 | 1017.2 |
| 20260901060017 | 73 | 225 | 1.7 | 4.3 | 0.01 | 0.02 | 0.01 | 89 | 1017.3 |
| 20260901055517 | 73 | 0.0 | 2.6 | 0.01 | 0.02 | 0.01 | 89 | 1017.2 | |
| 20260901055017 | 73 | 225 | 1.7 | 5.2 | 0.01 | 0.02 | 0.01 | 89 | 1017.4 |
| 20260901054517 | 73 | 225 | 2.6 | 5.2 | 0.01 | 0.02 | 0.01 | 89 | 1017.3 |
| 20260901054037 | 73 | 225 | 1.7 | 5.2 | 0.01 | 0.02 | 0.01 | 88 | 1017.4 |
| 20260901053517 | 73 | 225 | 1.7 | 5.2 | 0.01 | 0.02 | 0.01 | 88 | 1017.5 |
| 20260901053017 | 73 | 225 | 1.7 | 3.5 | 0.01 | 0.02 | 0.01 | 88 | 1017.6 |
| 20260901052516 | 73 | 248 | 1.7 | 3.5 | 0.01 | 0.02 | 0.01 | 88 | 1017.7 |
| 20260901052017 | 73 | 225 | 1.7 | 4.3 | 0.01 | 0.02 | 0.01 | 87 | 1017.6 |
| 20260901051517 | 73 | 248 | 1.7 | 4.3 | 0.01 | 0.02 | 0.01 | 87 | 1017.6 |
| 20260901051016 | 74 | 225 | 1.7 | 4.3 | 0.01 | 0.02 | 0.01 | 86 | 1017.7 |
| 20260901050517 | 74 | 225 | 1.7 | 5.2 | 0.01 | 0.02 | 0.01 | 86 | 1017.7 |
| 20260901050017 | 74 | 225 | 1.7 | 4.3 | 0.00 | 0.01 | 0.00 | 86 | 1017.6 |
| 20260901045518 | 73 | 225 | 1.7 | 4.3 | 0.00 | 0.01 | 0.00 | 85 | 1017.8 |
| 20260901045037 | 73 | 225 | 0.9 | 2.6 | 0.00 | 0.01 | 0.00 | 85 | 1017.7 |
| 20260901044536 | 74 | 225 | 1.7 | 7.0 | 0.00 | 0.01 | 0.00 | 85 | 1017.8 |
| 20260901044016 | 74 | 225 | 1.7 | 5.2 | 0.00 | 0.01 | 0.00 | 85 | 1017.7 |
| 20260901043537 | 74 | 225 | 1.7 | 3.5 | 0.00 | 0.01 | 0.00 | 85 | 1017.8 |
| 20260901043016 | 74 | 225 | 0.9 | 3.5 | 0.00 | 0.01 | 0.00 | 85 | 1017.8 |
| 20260901042517 | 74 | 248 | 0.9 | 4.3 | 0.00 | 0.01 | 0.00 | 85 | 1017.8 |
| 20260901042017 | 74 | 225 | 0.9 | 6.1 | 0.00 | 0.01 | 0.00 | 85 | 1017.9 |
| 20260901041517 | 74 | 225 | 1.7 | 4.3 | 0.00 | 0.01 | 0.00 | 85 | 1018.0 |
| 20260901041016 | 74 | 225 | 0.9 | 3.5 | 0.00 | 0.01 | 0.00 | 85 | 1017.9 |
| 20260901040516 | 74 | 248 | 0.9 | 4.3 | 0.00 | 0.01 | 0.00 | 85 | 1017.9 |
| 20260901040017 | 74 | 0.0 | 2.6 | 0.00 | 0.01 | 0.01 | 85 | 1017.8 | |
| 20260901035517 | 74 | 248 | 0.9 | 3.5 | 0.00 | 0.01 | 0.01 | 85 | 1017.8 |
| 20260901035017 | 74 | 0.0 | 2.6 | 0.00 | 0.01 | 0.01 | 85 | 1017.8 | |
| 20260901034518 | 74 | 203 | 0.9 | 3.5 | 0.00 | 0.01 | 0.01 | 85 | 1017.9 |
| 20260901034018 | 74 | 0.0 | 2.6 | 0.00 | 0.01 | 0.01 | 85 | 1017.9 | |
| 20260901033517 | 74 | 225 | 0.9 | 3.5 | 0.00 | 0.01 | 0.01 | 85 | 1018.0 |
| 20260901033017 | 74 | 225 | 0.9 | 2.6 | 0.00 | 0.01 | 0.01 | 85 | 1018.0 |
| 20260901032517 | 74 | 203 | 0.9 | 4.3 | 0.00 | 0.01 | 0.01 | 84 | 1018.0 |
| 20260901032017 | 74 | 203 | 0.9 | 3.5 | 0.00 | 0.01 | 0.01 | 84 | 1018.1 |
| 20260901031517 | 74 | 225 | 1.7 | 4.3 | 0.00 | 0.01 | 0.01 | 84 | 1018.0 |
| 20260901031017 | 74 | 158 | 0.9 | 2.6 | 0.00 | 0.01 | 0.01 | 84 | 1018.1 |
| 20260901030517 | 74 | 158 | 0.9 | 3.5 | 0.00 | 0.01 | 0.01 | 84 | 1018.1 |
| 20260901030057 | 74 | 248 | 0.9 | 6.1 | 0.00 | 0.01 | 0.01 | 84 | 1018.3 |
| 20260901025517 | 74 | 0.0 | 2.6 | 0.00 | 0.01 | 0.01 | 84 | 1018.4 | |
| 20260901025017 | 74 | 225 | 1.7 | 4.3 | 0.00 | 0.01 | 0.01 | 84 | 1018.4 |
| 20260901024517 | 74 | 225 | 0.9 | 4.3 | 0.00 | 0.01 | 0.01 | 84 | 1018.5 |
| 20260901024018 | 74 | 225 | 0.9 | 3.5 | 0.00 | 0.01 | 0.01 | 84 | 1018.5 |
| 20260901023517 | 74 | 225 | 0.9 | 3.5 | 0.00 | 0.01 | 0.01 | 84 | 1018.6 |
| 20260901023017 | 74 | 0.0 | 2.6 | 0.00 | 0.01 | 0.01 | 84 | 1018.7 | |
| 20260901022518 | 74 | 0.0 | 0.9 | 0.00 | 0.01 | 0.01 | 84 | 1018.6 | |
| 20260901022017 | 74 | 158 | 0.9 | 3.5 | 0.00 | 0.01 | 0.01 | 84 | 1018.5 |
| 20260901021518 | 74 | 270 | 0.9 | 1.7 | 0.00 | 0.01 | 0.01 | 84 | 1018.6 |
| 20260901021017 | 74 | 158 | 0.9 | 3.5 | 0.00 | 0.01 | 0.01 | 84 | 1018.5 |
| 20260901020517 | 74 | 135 | 0.9 | 3.5 | 0.00 | 0.01 | 0.01 | 84 | 1018.5 |
| 20260901020017 | 74 | 0.0 | 1.7 | 0.00 | 0.01 | 0.01 | 84 | 1018.6 | |
| 20260901015517 | 74 | 180 | 0.9 | 1.7 | 0.00 | 0.01 | 0.01 | 83 | 1018.6 |
| 20260901015017 | 74 | 135 | 0.9 | 4.3 | 0.00 | 0.02 | 0.01 | 83 | 1018.6 |
| 20260901014517 | 74 | 135 | 0.9 | 2.6 | 0.00 | 0.02 | 0.01 | 83 | 1018.7 |
| 20260901014017 | 74 | 158 | 0.9 | 2.6 | 0.00 | 0.02 | 0.01 | 83 | 1018.7 |
| 20260901013518 | 74 | 158 | 0.9 | 4.3 | 0.00 | 0.02 | 0.01 | 83 | 1018.7 |
| 20260901013037 | 74 | 135 | 0.9 | 2.6 | 0.00 | 0.02 | 0.01 | 83 | 1018.8 |
| 20260901012517 | 74 | 135 | 0.9 | 3.5 | 0.00 | 0.02 | 0.01 | 83 | 1018.8 |
| 20260901012017 | 74 | 135 | 0.9 | 4.3 | 0.00 | 0.02 | 0.01 | 83 | 1018.8 |
| 20260901011517 | 74 | 158 | 0.9 | 4.3 | 0.00 | 0.02 | 0.01 | 82 | 1018.8 |
| 20260901011018 | 74 | 180 | 0.9 | 4.3 | 0.00 | 0.02 | 0.01 | 82 | 1018.7 |
| 20260901010517 | 74 | 135 | 0.9 | 3.5 | 0.00 | 0.02 | 0.01 | 82 | 1018.6 |
| 20260901010057 | 74 | 135 | 1.7 | 7.0 | 0.00 | 0.02 | 0.01 | 82 | 1018.6 |
| 20260901005518 | 74 | 158 | 2.6 | 6.1 | 0.00 | 0.02 | 0.01 | 82 | 1018.5 |
| 20260901005017 | 74 | 158 | 1.7 | 4.3 | 0.00 | 0.02 | 0.01 | 82 | 1018.4 |
| 20260901004517 | 74 | 135 | 2.6 | 6.1 | 0.00 | 0.02 | 0.01 | 81 | 1018.5 |
| 20260901004017 | 74 | 158 | 1.7 | 5.2 | 0.00 | 0.02 | 0.01 | 81 | 1018.4 |
| 20260901003516 | 74 | 135 | 1.7 | 7.8 | 0.00 | 0.02 | 0.01 | 81 | 1018.4 |
| 20260901003018 | 74 | 158 | 0.9 | 3.5 | 0.00 | 0.02 | 0.01 | 81 | 1018.4 |
| 20260901002517 | 74 | 135 | 2.6 | 6.1 | 0.00 | 0.02 | 0.01 | 81 | 1018.4 |
| 20260901002017 | 74 | 135 | 1.7 | 3.5 | 0.00 | 0.02 | 0.01 | 80 | 1018.4 |
| 20260901001557 | 74 | 135 | 0.9 | 4.3 | 0.00 | 0.02 | 0.01 | 80 | 1018.5 |
| 20260901001017 | 74 | 158 | 0.9 | 3.5 | 0.00 | 0.02 | 0.01 | 80 | 1018.5 |
| 20260901000516 | 74 | 0.0 | 2.6 | 0.00 | 0.02 | 0.01 | 80 | 1018.4 | |
| 20260901000017 | 74 | 158 | 0.9 | 5.2 | 0.00 | 0.02 | 0.01 | 80 | 1018.4 |
| 20260831235517 | 74 | 135 | 1.7 | 6.1 | 0.00 | 0.02 | 0.01 | 80 | 1018.4 |
| 20260831235016 | 75 | 135 | 1.7 | 3.5 | 0.00 | 0.02 | 0.01 | 80 | 1018.4 |
| 20260831234518 | 75 | 135 | 1.7 | 3.5 | 0.00 | 0.02 | 0.01 | 79 | 1018.5 |
| 20260831234018 | 75 | 135 | 0.9 | 4.3 | 0.00 | 0.02 | 0.01 | 79 | 1018.4 |
| 20260831233537 | 75 | 135 | 0.9 | 4.3 | 0.00 | 0.02 | 0.01 | 78 | 1018.5 |
| 20260831233017 | 75 | 135 | 0.9 | 3.5 | 0.00 | 0.02 | 0.01 | 78 | 1018.5 |
| 20260831232517 | 75 | 135 | 1.7 | 3.5 | 0.00 | 0.02 | 0.01 | 78 | 1018.5 |
| 20260831232017 | 75 | 113 | 1.7 | 4.3 | 0.00 | 0.02 | 0.01 | 78 | 1018.4 |
| 20260831231518 | 75 | 158 | 0.9 | 1.7 | 0.00 | 0.02 | 0.01 | 77 | 1018.5 |
| 20260831231038 | 75 | 135 | 0.9 | 4.3 | 0.00 | 0.02 | 0.01 | 77 | 1018.5 |
| 20260831230517 | 75 | 113 | 1.7 | 5.2 | 0.00 | 0.02 | 0.01 | 76 | 1018.5 |
| 20260831230016 | 76 | 135 | 0.9 | 2.6 | 0.00 | 0.02 | 0.01 | 76 | 1018.5 |
| 20260831225537 | 76 | 135 | 0.9 | 2.6 | 0.00 | 0.02 | 0.01 | 76 | 1018.5 |
| 20260831225017 | 76 | 135 | 0.9 | 3.5 | 0.00 | 0.02 | 0.01 | 76 | 1018.6 |
| 20260831224538 | 76 | 135 | 1.7 | 3.5 | 0.00 | 0.02 | 0.01 | 75 | 1018.5 |
| 20260831224018 | 76 | 158 | 1.7 | 3.5 | 0.00 | 0.02 | 0.01 | 74 | 1018.5 |
| 20260831223518 | 76 | 135 | 2.6 | 4.3 | 0.00 | 0.02 | 0.01 | 74 | 1018.5 |
| 20260831223016 | 76 | 135 | 1.7 | 5.2 | 0.00 | 0.02 | 0.01 | 74 | 1018.5 |
| 20260831222517 | 76 | 135 | 0.9 | 5.2 | 0.00 | 0.02 | 0.01 | 74 | 1018.5 |
| 20260831222017 | 76 | 135 | 0.9 | 3.5 | 0.00 | 0.02 | 0.01 | 74 | 1018.5 |
| 20260831221518 | 77 | 135 | 0.9 | 3.5 | 0.00 | 0.02 | 0.01 | 74 | 1018.6 |
| 20260831221018 | 77 | 135 | 1.7 | 4.3 | 0.00 | 0.02 | 0.01 | 73 | 1018.6 |
| 20260831220518 | 77 | 203 | 2.6 | 4.3 | 0.00 | 0.02 | 0.01 | 73 | 1018.7 |